DW2408 Weather Reports


time (UTC)temp
C
wind
direction
speed
KPH
gust
KPH
rain 1hr
cm
rain 24hr
cm
rain mn
cm
humidity
%
barometer
mb
20260505173057 12 309 0.0 0.0 0.00 0.66 0.28 95 1015.7
20260505172545 12 0 0.0 0.0 0.00 0.66 0.28 95 1015.8
20260505172039 12 0 0.0 0.0 0.00 0.66 0.28 95 1015.9
20260505171550 12 0 0.0 0.0 0.00 0.66 0.28 96 1015.8
20260505171040 12 0 0.0 0.0 0.00 0.66 0.28 96 1015.8
20260505170542 12 0 0.0 0.0 0.00 0.66 0.28 96 1016.0
20260505170047 12 0 0.0 0.0 0.00 0.66 0.28 96 1015.9
20260505165542 12 0 0.0 0.0 0.00 0.66 0.28 96 1015.9
20260505165041 12 0 0.0 0.0 0.00 0.66 0.28 96 1016.0
20260505164600 12 0 0.0 0.0 0.00 0.66 0.28 96 1015.9
20260505164041 12 0 0.0 0.0 0.00 0.66 0.28 96 1015.9
20260505163541 12 0 0.0 0.0 0.00 0.66 0.28 96 1015.9
20260505163056 12 0 0.0 0.0 0.00 0.66 0.28 96 1016.0
20260505162545 12 0 0.0 0.0 0.00 0.66 0.28 96 1016.0
20260505162042 12 0 0.0 0.0 0.00 0.66 0.28 96 1016.0
20260505161551 12 0 0.0 0.0 0.00 0.66 0.28 96 1015.9
20260505161042 11 0 0.0 0.0 0.00 0.66 0.28 96 1015.8
20260505160542 11 0 0.0 0.0 0.00 0.66 0.28 96 1015.9
20260505153107 11 0 0.0 0.0 0.00 0.66 0.28 96 1015.5
20260505152542 11 0 0.0 0.0 0.00 0.66 0.28 96 1015.5
20260505152041 11 0 0.0 0.0 0.00 0.66 0.28 96 1015.4
20260505151554 11 0 0.0 0.0 0.00 0.66 0.28 96 1015.4
20260505151041 11 0 0.0 0.0 0.00 0.66 0.28 96 1015.4
20260505150542 11 0 0.0 0.0 0.00 0.66 0.28 96 1015.4
20260505140543 11 0 0.0 0.0 0.00 0.66 0.28 96 1015.1
20260505124549 10 0 0.0 0.0 0.00 0.66 0.28 96 1014.5
20260505124041 10 0 0.0 0.0 0.00 0.66 0.28 96 1014.5
20260505123541 10 0 0.0 0.0 0.00 0.66 0.28 96 1014.5
20260505123045 10 0 0.0 0.0 0.00 0.66 0.28 96 1014.6
20260505122544 10 0 0.0 0.0 0.00 0.66 0.28 96 1014.6
20260505122041 10 0 0.0 0.0 0.00 0.66 0.28 96 1014.7
20260505121550 10 0 0.0 0.0 0.00 0.66 0.28 96 1014.6
20260505121041 10 0 0.0 0.0 0.00 0.66 0.28 96 1014.7
20260505120541 10 0 0.0 0.0 0.00 0.66 0.28 96 1014.6
20260505120047 10 0 0.0 0.0 0.00 0.66 0.28 96 1014.7
20260505115544 10 0 0.0 0.0 0.00 0.66 0.28 96 1014.7
20260505115043 10 0 0.0 0.0 0.00 0.66 0.28 96 1014.6
20260505114548 10 0 0.0 0.0 0.00 0.66 0.28 96 1014.6
20260505114042 10 0 0.0 0.0 0.00 0.66 0.28 95 1014.6
20260505113541 10 0 0.0 0.0 0.00 0.66 0.28 95 1014.6
20260505113046 10 0 0.0 0.0 0.00 0.66 0.28 95 1014.6
20260505112541 10 0 0.0 0.0 0.00 0.66 0.28 95 1014.6
20260505112041 10 0 0.0 0.0 0.00 0.66 0.28 95 1014.6
20260505111559 10 0 0.0 0.0 0.00 0.66 0.28 95 1014.5
20260505111039 10 0 0.0 0.0 0.00 0.66 0.28 95 1014.7
20260505110540 10 0 0.0 0.0 0.00 0.66 0.28 95 1014.9
20260505102039 10 0 0.0 0.0 0.00 0.66 0.28 95 1015.0
20260505101547 10 0 0.0 0.0 0.00 0.66 0.28 95 1014.7
20260505101042 10 0 0.0 0.0 0.00 0.66 0.28 95 1014.8
20260505100542 10 0 0.0 0.0 0.00 0.66 0.28 95 1015.0
20260505100054 10 0 0.0 0.0 0.03 0.66 0.28 95 1014.7
20260505095543 10 0 0.0 0.0 0.05 0.66 0.28 95 1014.8
20260505095040 10 0 0.0 0.0 0.05 0.66 0.28 95 1014.8
20260505094551 10 0 0.0 0.0 0.05 0.66 0.28 95 1014.9
20260505094041 10 0 0.0 0.0 0.05 0.66 0.28 95 1015.0
20260505093539 10 0 0.0 0.0 0.05 0.66 0.28 95 1015.0
20260505093050 10 0 0.0 0.0 0.05 0.66 0.28 95 1015.0
20260505092540 10 0 0.0 0.0 0.05 0.66 0.28 95 1015.2
20260505092039 10 0 0.0 0.0 0.05 0.66 0.28 95 1015.2
20260505091557 11 0 0.0 0.0 0.05 0.66 0.28 95 1015.2
20260505091042 11 0 0.0 0.0 0.05 0.66 0.28 95 1015.2
20260505090542 11 0 0.0 0.0 0.03 0.64 0.25 95 1015.2
20260505090059 11 0 0.0 0.0 0.03 0.64 0.25 95 1015.1
20260505085542 11 0 0.0 0.0 0.03 0.61 0.23 95 1015.4
20260505085039 11 0 0.0 0.0 0.05 0.61 0.23 95 1015.3
20260505084551 10 0 0.0 0.0 0.08 0.61 0.23 95 1015.5
20260505084041 10 0 0.0 0.0 0.10 0.61 0.23 94 1015.4
20260505083538 10 0 0.0 0.0 0.13 0.61 0.23 94 1015.6
20260505083049 10 0 0.0 0.0 0.15 0.61 0.23 94 1015.6
20260505082542 10 0 0.0 0.0 0.20 0.61 0.23 94 1015.5
20260505082038 10 0 0.0 0.0 0.20 0.61 0.23 94 1015.5
20260505081559 10 0 0.0 0.0 0.20 0.61 0.23 94 1015.6
20260505081038 10 0 0.0 0.0 0.20 0.61 0.23 94 1015.5
20260505080541 10 0 0.0 0.0 0.23 0.61 0.23 94 1015.6
20260505080050 10 0 0.0 0.0 0.23 0.61 0.23 94 1015.6
20260505075541 10 0 0.0 0.0 0.20 0.58 0.20 94 1015.7
20260505075038 10 0 0.0 0.0 0.18 0.56 0.18 94 1015.7
20260505074607 10 0 0.0 0.0 0.18 0.53 0.15 94 1015.7
20260505074038 10 0 0.0 0.0 0.15 0.51 0.13 94 1015.8
20260505073538 10 0 0.0 0.0 0.13 0.48 0.10 94 1015.8
20260505073053 10 0 0.0 0.0 0.10 0.46 0.08 94 1015.4
20260505072543 10 0 0.0 0.0 0.05 0.41 0.03 93 1015.7
20260505072041 10 0 0.0 0.0 0.05 0.41 0.03 93 1015.8
20260505071542 10 0 0.0 0.0 0.05 0.41 0.03 93 1015.8
20260505071041 10 0 0.0 0.0 0.05 0.41 0.03 93 1015.8
20260505070538 10 0 0.0 0.0 0.03 0.38 0.00 93 1016.0
20260505070052 10 0 0.0 0.0 0.05 0.38 0.00 93 1016.1
20260505065538 10 0 0.0 0.0 0.05 0.38 0.38 93 1015.9
20260505065040 10 0 0.0 0.0 0.08 0.38 0.38 93 1015.9
20260505064552 10 0 0.0 0.0 0.08 0.36 0.36 93 1016.0
20260505064040 10 0 0.0 0.0 0.10 0.36 0.36 93 1015.8
20260505063538 10 0 0.0 0.0 0.10 0.36 0.36 93 1015.9
20260505063055 10 0 0.0 0.0 0.10 0.36 0.36 93 1015.8
20260505062538 10 0 0.0 0.0 0.13 0.36 0.36 93 1015.8
20260505062040 10 0 0.0 0.0 0.15 0.36 0.36 92 1015.7
20260505061615 10 0 0.0 0.0 0.15 0.36 0.36 92 1015.6
20260505061037 10 0 0.0 0.0 0.15 0.36 0.36 92 1015.5
20260505060543 10 0 0.0 0.0 0.18 0.36 0.36 92 1015.5
20260505060053 10 0 0.0 0.0 0.15 0.33 0.33 92 1015.7
20260505055541 10 0 0.0 0.0 0.13 0.30 0.30 92 1015.7
20260505055044 10 0 0.0 0.0 0.13 0.30 0.30 92 1015.8
20260505054604 10 0 0.0 0.0 0.13 0.28 0.28 92 1015.8
20260505054041 11 0 0.0 0.0 0.10 0.25 0.25 92 1015.9
20260505053538 11 0 0.0 0.0 0.13 0.25 0.25 92 1015.9
20260505053047 11 0 0.0 0.0 0.15 0.25 0.25 91 1015.8
20260505052538 11 0 0.0 0.0 0.13 0.23 0.23 91 1015.8
20260505052039 11 0 0.0 0.0 0.13 0.20 0.20 91 1015.8
20260505051549 11 0 0.0 0.0 0.13 0.20 0.20 91 1015.7
20260505051038 11 0 0.0 0.0 0.15 0.20 0.20 91 1015.7
20260505050540 11 0 0.0 0.0 0.13 0.18 0.18 91 1015.7
20260505041550 11 0 0.0 0.0 0.08 0.08 0.08 90 1016.4
20260505041041 11 0 0.0 0.0 0.05 0.05 0.05 90 1016.4
20260505040541 11 0 0.0 0.0 0.05 0.05 0.05 90 1016.3
20260505040050 11 0 0.0 0.0 0.03 0.03 0.03 90 1016.1
20260505035541 11 0 0.0 0.0 0.03 0.03 0.03 90 1016.0
20260505035040 11 0 0.0 0.0 0.03 0.03 0.03 89 1015.9
20260505034546 11 0 0.0 0.0 0.03 0.03 0.03 89 1015.8
20260505034040 11 0 0.0 0.0 0.03 0.03 0.03 89 1015.6
20260505033541 11 0 0.0 0.0 0.03 0.03 0.03 89 1015.5
20260505033051 11 0 0.0 0.0 0.03 0.03 0.03 89 1015.4
20260505032541 11 0 0.0 0.0 0.03 0.03 0.03 89 1015.4
20260505032044 11 0 0.0 16.1 0.00 0.00 0.00 89 1015.3
20260505031549 11 0 3.2 16.1 0.00 0.00 0.00 89 1015.3
20260505031041 12 0 0.0 11.3 0.00 0.00 0.00 89 1015.2
20260505030543 12 0 0.0 14.5 0.00 0.00 0.00 89 1015.3
20260505030048 12 304 4.8 17.7 0.00 0.00 0.00 89 1015.3
20260505025541 12 304 8.0 17.7 0.00 0.00 0.00 89 1015.4
20260505025043 12 295 1.6 20.9 0.00 0.00 0.00 88 1015.3
20260505024605 12 298 9.7 20.9 0.00 0.00 0.00 88 1015.4
20260505024044 12 308 6.4 19.3 0.00 0.00 0.00 88 1015.3
20260505023540 12 302 9.7 19.3 0.00 0.00 0.00 88 1015.4
20260505023049 12 0 0.0 16.1 0.00 0.00 0.00 88 1015.5
20260505022537 12 307 4.8 16.1 0.00 0.00 0.00 88 1015.5
20260505022041 12 298 3.2 16.1 0.00 0.00 0.00 88 1015.5
20260505021602 12 0 4.8 16.1 0.00 0.00 0.00 87 1015.3
20260505021041 12 307 8.0 16.1 0.00 0.00 0.00 87 1015.3
20260505020541 12 299 0.0 14.5 0.00 0.00 0.00 87 1015.3
20260505020049 12 0 0.0 0.0 0.00 0.00 0.00 86 1015.2
20260505015538 12 0 0.0 20.9 0.00 0.00 0.00 86 1015.3
20260505015041 13 0 8.0 20.9 0.00 0.00 0.00 85 1015.4
20260505014546 13 304 8.0 19.3 0.00 0.00 0.00 84 1015.4
20260505014041 13 307 4.8 19.3 0.00 0.00 0.00 84 1015.6
20260505013542 13 310 8.0 19.3 0.00 0.00 0.00 83 1015.6
20260505013050 13 302 0.0 17.7 0.00 0.00 0.00 82 1015.6
20260505012541 13 309 8.0 16.1 0.00 0.00 0.00 81 1015.7
20260505012041 13 0 0.0 16.1 0.00 0.00 0.00 80 1015.6
20260505011554 13 293 4.8 17.7 0.00 0.00 0.00 79 1015.7
20260505011041 13 298 9.7 17.7 0.00 0.00 0.00 79 1015.6
20260505010540 13 304 9.7 20.9 0.00 0.00 0.00 78 1015.7
20260505010049 13 0 6.4 20.9 0.00 0.00 0.00 77 1015.6
20260505005537 13 297 8.0 16.1 0.00 0.00 0.00 77 1015.6
20260505005038 14 242 8.0 19.3 0.00 0.00 0.00 77 1015.6
20260505004549 14 0 1.6 19.3 0.00 0.00 0.00 75 1015.5
20260505004040 14 300 6.4 25.7 0.00 0.00 0.00 75 1015.5
20260505003541 14 0 9.7 25.7 0.00 0.00 0.00 73 1015.6
20260505003046 14 291 14.5 25.7 0.00 0.00 0.00 71 1015.7
20260505002540 14 300 3.2 22.5 0.00 0.00 0.00 71 1015.6
20260505002037 15 297 4.8 22.5 0.00 0.00 0.00 73 1015.7
20260505001546 15 304 3.2 16.1 0.00 0.00 0.00 73 1015.6
20260505001041 15 0 0.0 1.6 0.00 0.00 0.00 74 1015.6
20260505000541 15 0 0.0 1.6 0.00 0.00 0.00 73 1015.6
20260505000051 15 0 0.0 11.3 0.00 0.00 0.00 73 1015.6
20260504235541 15 0 0.0 12.9 0.00 0.00 0.00 72 1015.7
20260504235042 15 0 3.2 16.1 0.00 0.00 0.00 72 1015.6
20260504234548 15 0 4.8 16.1 0.00 0.00 0.00 71 1015.6
20260504234042 15 0 0.0 11.3 0.00 0.00 0.00 72 1015.5
20260504233541 15 0 0.0 12.9 0.00 0.00 0.00 73 1015.4
20260504233057 15 0 1.6 12.9 0.00 0.00 0.00 74 1015.4
20260504232542 15 297 0.0 8.0 0.00 0.00 0.00 75 1015.5
20260504232041 16 0 0.0 8.0 0.00 0.00 0.00 76 1015.4
20260504231547 16 166 0.0 0.0 0.00 0.00 0.00 76 1015.4
20260504231041 16 0 0.0 0.0 0.00 0.00 0.00 76 1015.4
20260504230540 16 0 0.0 0.0 0.00 0.00 0.00 75 1015.4
20260504230046 16 0 0.0 0.0 0.00 0.00 0.00 75 1015.4
20260504225540 16 0 0.0 0.0 0.00 0.00 0.00 74 1015.2
20260504225040 16 0 0.0 0.0 0.00 0.00 0.00 73 1015.2
20260504224546 16 0 0.0 0.0 0.00 0.00 0.00 73 1015.3
20260504224045 16 0 0.0 0.0 0.00 0.00 0.00 72 1015.4
20260504223541 17 0 0.0 0.0 0.00 0.00 0.00 71 1015.5
20260504223102 17 0 0.0 0.0 0.00 0.00 0.00 70 1015.5
20260504222541 17 0 0.0 0.0 0.00 0.00 0.00 69 1015.5
20260504222042 17 0 0.0 0.0 0.00 0.00 0.00 67 1015.5
20260504221604 17 0 0.0 0.0 0.00 0.00 0.00 66 1015.7
20260504221040 17 0 0.0 0.0 0.00 0.00 0.00 67 1015.7
20260504220540 17 0 0.0 0.0 0.00 0.00 0.00 69 1015.5
20260504220122 17 0 0.0 0.0 0.00 0.00 0.00 69 1015.6
20260504215542 17 0 0.0 0.0 0.00 0.00 0.00 69 1015.6
20260504215040 17 0 0.0 11.3 0.00 0.00 0.00 70 1015.6
20260504214551 17 0 0.0 11.3 0.00 0.00 0.00 71 1015.7
20260504214040 16 0 0.0 11.3 0.00 0.00 0.00 71 1015.6
20260504213541 16 0 1.6 14.5 0.00 0.00 0.00 72 1015.7
20260504213122 16 120 4.8 14.5 0.00 0.00 0.00 71 1015.6
20260504212542 16 0 3.2 16.1 0.00 0.00 0.00 72 1015.7
20260504212040 16 0 0.0 16.1 0.00 0.00 0.00 72 1015.7
20260504211550 16 232 0.0 0.0 0.00 0.00 0.00 72 1015.7
20260504211040 16 0 0.0 9.7 0.00 0.00 0.00 71 1015.7
20260504210541 16 0 0.0 19.3 0.00 0.00 0.00 71 1015.7
20260504210059 16 171 1.6 19.3 0.00 0.00 0.00 72 1015.6
20260504205541 16 0 4.8 19.3 0.00 0.00 0.00 70 1015.6
20260504205040 17 0 0.0 8.0 0.00 0.00 0.00 70 1015.7
20260504204601 17 0 0.0 14.5 0.00 0.00 0.00 69 1015.9
20260504204040 17 0 1.6 14.5 0.00 0.00 0.00 69 1015.9
20260504203542 17 0 0.0 16.1 0.00 0.00 0.00 69 1015.8
20260504203048 17 0 0.0 16.1 0.00 0.00 0.00 68 1015.7
20260504202540 17 0 0.0 16.1 0.00 0.00 0.00 68 1015.7
20260504202044 17 0 0.0 0.0 0.00 0.00 0.00 68 1015.5
20260504201544 17 0 0.0 14.5 0.00 0.00 0.00 68 1015.6
20260504201040 17 0 0.0 14.5 0.00 0.00 0.00 68 1015.6
20260504200546 17 0 0.0 12.9 0.00 0.00 0.00 67 1015.6
20260504195540 17 0 0.0 14.5 0.00 0.00 0.00 68 1015.7
20260504195041 17 0 0.0 16.1 0.00 0.00 0.00 68 1015.8
20260504194548 17 186 0.0 16.1 0.00 0.00 0.00 68 1015.9
20260504194041 17 0 0.0 12.9 0.00 0.00 0.00 68 1015.9
20260504193541 17 0 0.0 12.9 0.00 0.00 0.00 69 1015.8
20260504193048 17 201 0.0 12.9 0.00 0.00 0.00 70 1015.8
20260504192540 17 0 1.6 12.9 0.00 0.00 0.00 72 1015.8
20260504192041 16 0 0.0 9.7 0.00 0.00 0.00 72 1015.8
20260504191552 16 0 0.0 0.0 0.00 0.00 0.00 72 1015.8
20260504191041 16 0 0.0 8.0 0.00 0.00 0.00 72 1015.8
20260504190540 16 0 0.0 8.0 0.00 0.00 0.00 73 1015.9
20260504190048 16 0 0.0 0.0 0.00 0.00 0.00 74 1016.0
20260504185541 16 0 0.0 0.0 0.00 0.00 0.00 75 1016.1
20260504185041 16 0 0.0 0.0 0.00 0.00 0.00 75 1016.1
20260504184558 16 0 0.0 0.0 0.00 0.00 0.00 76 1016.0
20260504184041 16 0 0.0 0.0 0.00 0.00 0.00 76 1015.9
20260504183541 16 0 0.0 0.0 0.00 0.00 0.00 77 1015.9
20260504183051 15 0 0.0 0.0 0.00 0.00 0.00 78 1016.0
20260504182542 15 0 0.0 0.0 0.00 0.00 0.00 78 1015.9
20260504182040 15 0 0.0 6.4 0.00 0.00 0.00 78 1015.9
20260504181553 15 0 0.0 12.9 0.00 0.00 0.00 78 1016.0
20260504181042 15 0 4.8 16.1 0.00 0.00 0.00 78 1015.9
20260504180544 15 0 3.2 17.7 0.00 0.00 0.00 78 1015.9
20260504180118 15 294 4.8 17.7 0.00 0.00 0.00 78 1015.8
20260504175540 15 290 1.6 16.1 0.00 0.00 0.00 77 1015.8
20260504175043 15 0 0.0 0.0 0.00 0.00 0.00 77 1015.9
20260504174551 15 0 0.0 0.0 0.00 0.00 0.00 76 1015.8
20260504174040 15 0 0.0 0.0 0.00 0.00 0.00 76 1015.7
20260504173539 15 0 0.0 14.5 0.00 0.00 0.00 76 1015.8